Flag Weather past 2 weeks in Lansing, Michigan, U.S.A.

Now
47 °F

Overcast.


Feels Like: 42 °F
Forecast: 34 / 49 °F
Wind: 9 mph from Southwest

Location: Capital City Airport

Current Time: Oct 30, 2014 at 7:08:01 PM

Latest Report: Oct 30, 2014 at 5:53 PM


Visibility: 9 mi

Pressure: 30.08 "Hg

Humidity: 66%

Dew point: 36 °F

Location of LansingLocation

Historic Weather in Lansing — Graph

°F

Lansing temperature yesterday

Maximum temperature yesterday: 46 °F (at 12:53 AM)
Minimum temperature yesterday: 38 °F (at 11:53 PM)
Average temperature yesterday: 44 °F

Past Weeks' High & Low Weather Summary

 TemperatureHumidityPressure
High74 °F (Oct 27, 3:53 PM)100% (Oct 16, 4:53 AM)30.40 "Hg (Oct 16, 4:53 AM)
Low29 °F (Oct 19, 7:53 AM)25% (Oct 25, 3:53 PM)29.50 "Hg (Oct 17, 1:53 PM)
Average49 °F75%29.95 "Hg
* Reported Oct 15 5:53 PM — Oct 30 5:53 PM, Lansing, Weather by CustomWeather, © 2014

Note: Actual official high and low records may vary slightly from our data, if they occured in-between our weather recording intervals... More about our weather records

Advertising

Lansing weather history for previous 24 hours

 ConditionsComfort  
Time TempWeatherWind HumidityBarometerVisibility
5:53 PM
Oct 30
47 °FOvercast.9 mph66%30.08 "Hg9 mi
4:53 PM48 °FOvercast.9 mph63%30.07 "Hg10 mi
3:53 PM49 °FOvercast.8 mph61%30.08 "Hg10 mi
2:53 PM48 °FOvercast.7 mph63%30.09 "Hg10 mi
1:53 PM48 °FOvercast.8 mph66%30.11 "Hg10 mi
12:53 PM47 °FOvercast.8 mph69%30.13 "Hg10 mi
11:53 AM45 °FOvercast.8 mph71%30.14 "Hg10 mi
10:53 AM44 °FOvercast.5 mph73%30.16 "Hg10 mi
9:53 AM42 °FOvercast.3 mph79%30.16 "Hg10 mi
8:53 AM40 °FOvercast.No wind86%30.16 "Hg10 mi
7:53 AM39 °FOvercast.3 mph89%30.14 "Hg10 mi
6:53 AM39 °FOvercast.No wind89%30.14 "Hg10 mi
5:53 AM38 °FOvercast.No wind93%30.14 "Hg10 mi
4:53 AM37 °FOvercast.No wind93%30.14 "Hg10 mi
3:53 AM34 °FOvercast.No wind97%30.15 "Hg10 mi
2:53 AM34 °FPassing clouds.No wind92%30.14 "Hg10 mi
1:53 AM35 °FClear.No wind88%30.13 "Hg10 mi
12:53 AM36 °FClear.5 mph89%30.13 "Hg10 mi
11:53 PM
Oct 29
38 °FClear.3 mph83%30.12 "Hg10 mi
10:53 PM39 °FClear.6 mph79%30.12 "Hg10 mi
9:53 PM44 °FOvercast.7 mph71%30.11 "Hg10 mi
8:53 PM44 °FOvercast.6 mph73%30.09 "Hg10 mi
7:53 PM45 °FMostly cloudy.8 mph71%30.09 "Hg10 mi
Weather by CustomWeather, © 2014

See weather overviewHow to use our weather pages